Weather History for KRYV - July, 2013

Change the Weather History Date:

Saturday, July 6, 2013

  Actual Average Record
Temperature  
Mean Temperature 72 °F -  
Max Temperature 84 °F 83 °F 102 °F (2012)
Min Temperature 61 °F 58 °F 41 °F (1965)
Cooling Degree Days 8    
Growing Degree Days 22 (Base 50)    
Moisture  
Dew Point 62 °F    
Average Humidity 69    
Maximum Humidity 94    
Minimum Humidity 47    
Precipitation  
Precipitation 0.00 in - - ()
Sea Level Pressure  
Sea Level Pressure 30.02 in    
Wind  
Wind Speed 3 mph (South)    
Max Wind Speed 10 mph    
Max Gust Speed 16 mph    
Visibility 9 miles    
Events      
Averages and records for this station are not official NWS values.
T = Trace of Precipitation, MM = Missing Value Source: NWS Daily Summary

Daily Weather History Graph

Daily Weather History Graph

Search for Another Location

Airport or City:

Trip Planner

Search our weather history database for the weather conditions in past years. The results will help you decide how hot, cold, wet, or windy it might be!

Date:

Astronomy

Jul. 06, 2013 Rise Set
Actual Time 5:22 AM CDT 8:37 PM CDT
Civil Twilight 4:47 AM CDT 9:11 PM CDT
Nautical Twilight 4:01 AM CDT 9:57 PM CDT
Astronomical Twilight 3:06 AM CDT 10:52 PM CDT
Moon 4:09 AM CDT (7/6) 7:16 PM CDT (7/6)
Length of Visible Light 16h 24m
Length of Day
15h 14m
Waning Crescent, 2% of the Moon is Illuminated
Jul 6
Waning Crescent
Jul 8
New
Jul 15
First Quarter
Jul 22
Full
Jul 29
Last Quarter

Hourly Weather History & Observations

Time (CDT) Temp. Heat Index Dew Point Humidity Pressure Visibility Wind Dir Wind Speed Gust Speed Precip Events Conditions
12:15 AM 66.7 °F - 60.3 °F 80% 30.04 in 10.0 mi Calm Calm - N/A   Clear
12:35 AM 66.6 °F - 60.1 °F 80% 30.03 in 10.0 mi South 3.5 mph - N/A   Clear
12:55 AM 65.5 °F - 60.3 °F 83% 30.04 in 10.0 mi SSE 3.5 mph - N/A   Clear
1:15 AM 66.0 °F - 60.8 °F 83% 30.04 in 10.0 mi Calm Calm - N/A   Clear
1:35 AM 65.7 °F - 60.8 °F 84% 30.04 in 10.0 mi Calm Calm - N/A   Clear
1:55 AM 65.8 °F - 61.0 °F 84% 30.04 in 10.0 mi Calm Calm - N/A   Clear
2:15 AM 63.1 °F - 59.7 °F 89% 30.03 in 10.0 mi Calm Calm - N/A   Clear
2:35 AM 63.7 °F - 60.8 °F 90% 30.03 in 7.0 mi Calm Calm - N/A   Clear
2:55 AM 62.8 °F - 59.4 °F 89% 30.03 in 7.0 mi Calm Calm - N/A   Clear
3:15 AM 63.1 °F - 60.4 °F 91% 30.03 in 7.0 mi Calm Calm - N/A   Clear
3:35 AM 62.1 °F - 60.1 °F 93% 30.03 in 7.0 mi Calm Calm - N/A   Clear
3:55 AM 63.5 °F - 60.8 °F 91% 30.04 in 7.0 mi SSE 4.6 mph - N/A   Clear
4:15 AM 63.9 °F - 61.0 °F 90% 30.04 in 7.0 mi Calm Calm - N/A   Clear
4:35 AM 63.7 °F - 61.0 °F 91% 30.05 in 7.0 mi Calm Calm - N/A   Clear
4:55 AM 62.8 °F - 60.1 °F 91% 30.05 in 7.0 mi Calm Calm - N/A   Clear
5:15 AM 61.7 °F - 59.5 °F 93% 30.04 in 4.0 mi Calm Calm - N/A   Clear
5:35 AM 62.4 °F - 60.4 °F 93% 30.05 in 4.0 mi Calm Calm - N/A   Clear
5:55 AM 62.6 °F - 60.3 °F 92% 30.05 in 4.0 mi Calm Calm - N/A   Clear
6:15 AM 62.2 °F - 60.4 °F 94% 30.05 in 4.0 mi Calm Calm - N/A   Clear
6:35 AM 64.4 °F - 61.7 °F 91% 30.05 in 4.0 mi Calm Calm - N/A   Clear
6:55 AM 65.7 °F - 62.1 °F 88% 30.05 in 5.0 mi Calm Calm - N/A   Clear
7:15 AM 67.3 °F - 62.6 °F 85% 30.05 in 5.0 mi South 3.5 mph - N/A   Clear
7:35 AM 69.1 °F - 63.0 °F 81% 30.05 in 7.0 mi SSW 4.6 mph - N/A   Clear
7:55 AM 70.3 °F - 63.5 °F 79% 30.05 in 10.0 mi Calm Calm - N/A   Clear
8:15 AM 71.8 °F - 63.9 °F 76% 30.05 in 10.0 mi SSW 5.8 mph - N/A   Clear
8:35 AM 73.8 °F - 64.2 °F 72% 30.05 in 10.0 mi South 6.9 mph - N/A   Clear
8:55 AM 74.7 °F - 64.4 °F 70% 30.05 in 10.0 mi SW 6.9 mph - N/A   Clear
9:15 AM 75.7 °F - 64.6 °F 68% 30.05 in 10.0 mi SSW 6.9 mph - N/A   Clear
9:35 AM 76.6 °F - 64.9 °F 67% 30.04 in 10.0 mi SSW 8.1 mph - N/A   Clear
9:55 AM 78.3 °F - 65.7 °F 65% 30.04 in 10.0 mi South 8.1 mph - N/A   Clear
10:15 AM 78.6 °F - 64.8 °F 62% 30.04 in 10.0 mi South 9.2 mph - N/A   Clear
10:35 AM 79.2 °F - 64.6 °F 61% 30.04 in 10.0 mi South 8.1 mph - N/A   Clear
10:55 AM 79.9 °F - 64.0 °F 58% 30.04 in 10.0 mi SW 8.1 mph - N/A   Clear
11:15 AM 80.8 °F 82.4 °F 64.2 °F 57% 30.03 in 10.0 mi SSW 10.4 mph - N/A   Clear
11:35 AM 81.1 °F 82.8 °F 64.6 °F 57% 30.03 in 10.0 mi South 8.1 mph - N/A   Clear
11:55 AM 81.3 °F 82.7 °F 63.9 °F 55% 30.03 in 10.0 mi South 8.1 mph - N/A   Clear
12:15 PM 81.5 °F 82.7 °F 63.0 °F 53% 30.02 in 10.0 mi SW 8.1 mph - N/A   Clear
12:35 PM 82.2 °F 83.5 °F 63.5 °F 53% 30.02 in 10.0 mi South 5.8 mph - N/A   Clear
12:55 PM 82.8 °F 84.0 °F 63.3 °F 52% 30.02 in 10.0 mi Calm Calm - N/A   Clear
1:15 PM 83.1 °F 84.0 °F 62.8 °F 50% 30.01 in 10.0 mi SSW 4.6 mph - N/A   Scattered Clouds
1:35 PM 83.1 °F 84.0 °F 63.0 °F 50% 30.01 in 10.0 mi South 4.6 mph - N/A   Scattered Clouds
1:55 PM 82.4 °F 83.4 °F 62.8 °F 51% 30.01 in 10.0 mi SSW 8.1 mph - N/A   Scattered Clouds
2:15 PM 83.1 °F 84.2 °F 63.3 °F 51% 30.01 in 10.0 mi SSE 4.6 mph - N/A   Mostly Cloudy
2:35 PM 82.9 °F 83.8 °F 62.4 °F 50% 30.00 in 10.0 mi SSW 9.2 mph - N/A   Scattered Clouds
2:55 PM 84.4 °F 85.2 °F 62.6 °F 48% 30.00 in 10.0 mi SSW 3.5 mph 16.1 mph N/A   Mostly Cloudy
3:15 PM 82.9 °F 83.7 °F 62.1 °F 49% 30.00 in 10.0 mi South 8.1 mph - N/A   Mostly Cloudy
3:35 PM 84.2 °F 84.8 °F 61.9 °F 47% 30.00 in 10.0 mi South 5.8 mph - N/A   Scattered Clouds
3:55 PM 84.2 °F 85.2 °F 63.3 °F 49% 30.00 in 10.0 mi South 5.8 mph - N/A   Mostly Cloudy
4:15 PM 83.8 °F 84.7 °F 62.8 °F 49% 29.99 in 10.0 mi South 5.8 mph - N/A   Mostly Cloudy
4:35 PM 84.0 °F 84.9 °F 63.1 °F 49% 29.99 in 10.0 mi South 6.9 mph - N/A   Mostly Cloudy
4:55 PM 83.8 °F 84.5 °F 62.4 °F 48% 29.98 in 10.0 mi South 6.9 mph - N/A   Scattered Clouds
5:15 PM 83.3 °F 84.3 °F 62.6 °F 50% 29.98 in 10.0 mi SSW 6.9 mph - N/A   Clear
5:35 PM 82.9 °F 83.7 °F 62.2 °F 49% 29.97 in 10.0 mi South 6.9 mph - N/A   Clear
5:55 PM 82.4 °F 83.4 °F 62.4 °F 51% 29.97 in 10.0 mi SSE 6.9 mph - N/A   Clear
6:15 PM 82.4 °F 83.4 °F 62.8 °F 51% 29.97 in 10.0 mi SSE 8.1 mph - N/A   Clear
6:35 PM 81.7 °F 82.6 °F 62.1 °F 51% 29.96 in 10.0 mi SSE 4.6 mph - N/A   Clear
6:55 PM 81.0 °F 82.3 °F 63.3 °F 55% 29.96 in 10.0 mi SSE 5.8 mph - N/A   Clear
7:15 PM 80.1 °F 81.6 °F 63.7 °F 57% 29.96 in 10.0 mi South 4.6 mph - N/A   Clear
7:35 PM 79.2 °F - 63.5 °F 59% 29.96 in 10.0 mi South 4.6 mph - N/A   Clear
7:55 PM 78.1 °F - 63.5 °F 61% 29.96 in 10.0 mi South 4.6 mph - N/A   Clear
8:15 PM 77.0 °F - 63.3 °F 63% 29.97 in 10.0 mi South 3.5 mph - N/A   Clear
8:35 PM 75.9 °F - 63.0 °F 64% 29.97 in 10.0 mi South 3.5 mph - N/A   Clear
8:55 PM 74.8 °F - 63.1 °F 67% 29.97 in 10.0 mi South 3.5 mph - N/A   Clear
9:15 PM 73.4 °F - 63.0 °F 70% 29.98 in 10.0 mi SSE 3.5 mph - N/A   Clear
9:35 PM 73.4 °F - 63.0 °F 70% 29.98 in 10.0 mi Calm Calm - N/A   Clear
9:55 PM 71.2 °F - 63.5 °F 76% 29.99 in 10.0 mi Calm Calm - N/A   Clear
10:15 PM 71.4 °F - 62.6 °F 74% 29.99 in 10.0 mi South 3.5 mph - N/A   Clear
10:35 PM 70.7 °F - 63.0 °F 76% 29.99 in 10.0 mi SE 3.5 mph - N/A   Clear
10:55 PM 70.2 °F - 62.8 °F 77% 30.00 in 10.0 mi SSE 3.5 mph - N/A   Clear
11:15 PM 70.9 °F - 62.2 °F 74% 30.00 in 10.0 mi South 3.5 mph - N/A   Clear
11:35 PM 70.5 °F - 62.1 °F 74% 30.00 in 10.0 mi South 4.6 mph - N/A   Clear
11:55 PM 70.2 °F - 62.1 °F 75% 30.00 in 10.0 mi South 5.8 mph - N/A   Clear